sat.trackr.live / text

‹ back to catalog

THEMIS A

NORAD 30580 · 2007-004A

PAYLOAD ACTIVE UNKNOWN

§ Identity

Operator
Country
US
Launch date
2007-02-17
Launch site
AFETR
Launch vehicle
Mass (kg)
RCS (m²)
0.40

External: N2YO · Heavens-Above · Gunter

§ Orbital elements

Epoch: 2026-09-15T07:01:01.211232Z

Period
1,639.27 min
Inclination
9.3149°
Eccentricity
0.8334487
Mean motion
0.87844123 rev/d
Perigee alt
1,292.1 km
Apogee alt
78,058.1 km
Semi-major
46,053.2 km
B*
0.0000e+0
RAAN
101.7950°
Arg perigee
216.9749°
Mean anomaly
37.5186°
Rev number
4,207

§ Raw data

THEMIS A1 30580U 07004A   26258.29237513 -.00000463  00000+0  00000+0 0  99942 30580   9.3149 101.7950 8334487 216.9749  37.5186  0.87844123 42072

JSON: /api/v1/satellites/30580 · /tle

For live sub-satellite position, see the globe view (requires WebGL).

§ Visibility from observer

Set your observer location to see the next 7 days of passes ≥ 10°. The values pass through the URL so the page stays shareable.

No JS? Fill the form by hand. The geolocation button needs JavaScript.